Location: Unspecified
(42.3650°N, 71.1030°W)
Time: 16:40:24
(UTC+00:00)

S-56A Canister/Altair - Pass Details

Date: 02 July 2024
Orbit: 638 x 2487 km, 38.9° (Epoch: 20 July)

Event Time Altitude Azimuth Distance (km) Brightness Sun altitude
Rises 02:19:26 0° 274° (W) 3,941 11.8 -16.1°
Reaches altitude 10° 02:21:48 10° 272° (W) 3,183 11.2 -16.4°
Maximum altitude 02:29:51 64° 193° (SSW) 1,764 9.1 -17.2°
Enters shadow 02:40:09 15° 117° (ESE) 4,129 10.7 -18.2°
